| DS18B20 | SHTC3 | ||||||
|---|---|---|---|---|---|---|---|
| ID | Date d/m/Y & Time | data1 สูง | data2 ต่ำ | data3 นอก | temp pcb | hum pcb | Time |
| 946 | 09/03/2026 19:29:19 | 29.6  | 29.7  | 28.2  | 29.6  | 72.3  | 19:29 |
| 945 | 09/03/2026 19:24:37 | 29.7  | 29.8  | 28.2  | 29.6  | 72.2  | 19:24 |
| 944 | 09/03/2026 19:19:55 | 29.8  | 29.8  | 28.2  | 29.6  | 72.3  | 19:19 |
| 943 | 09/03/2026 19:15:14 | 29.8  | 29.9  | 28.2  | 29.7  | 72.1  | 19:15 |
| 942 | 09/03/2026 19:10:32 | 29.9  | 29.9  | 28.3  | 29.9  | 72.3  | 19:10 |
| 941 | 09/03/2026 19:05:48 | 29.9  | 29.9  | 28.3  | 30.0  | 72.5  | 19:05 |
| 940 | 09/03/2026 19:01:07 | 29.9  | 30.0  | 28.3  | 30.0  | 72.5  | 19:01 |
| 939 | 09/03/2026 18:56:25 | 30.0  | 30.1  | 28.4  | 29.8  | 72.2  | 18:56 |
| 938 | 09/03/2026 18:51:43 | 30.1  | 30.1  | 28.4  | 30.0  | 72.3  | 18:51 |
| 937 | 09/03/2026 18:47:01 | 30.1  | 30.2  | 28.5  | 30.0  | 72.6  | 18:47 |
| 936 | 09/03/2026 18:42:19 | 30.2  | 30.2  | 28.5  | 30.2  | 72.6  | 18:42 |
| 935 | 09/03/2026 18:37:38 | 30.3  | 30.4  | 28.5  | 30.4  | 72.6  | 18:37 |
| 934 | 09/03/2026 18:32:56 | 30.4  | 30.4  | 28.5  | 30.4  | 72.5  | 18:32 |
| 933 | 09/03/2026 18:28:13 | 30.4  | 30.4  | 28.6  | 30.3  | 72.6  | 18:28 |
| 932 | 09/03/2026 18:23:32 | 30.4  | 30.5  | 28.6  | 30.5  | 72.2  | 18:23 |
| 931 | 09/03/2026 18:18:50 | 30.4  | 30.4  | 28.7  | 30.6  | 71.8  | 18:18 |
| 930 | 09/03/2026 18:14:08 | 30.4  | 30.4  | 28.7  | 30.5  | 70.9  | 18:14 |
| 929 | 09/03/2026 18:09:26 | 30.4  | 30.5  | 28.9  | 30.4  | 70.5  | 18:09 |
| 928 | 09/03/2026 18:04:44 | 30.5  | 30.5  | 29.0  | 30.5  | 70.1  | 18:04 |
| 927 | 09/03/2026 18:00:02 | 30.5  | 30.5  | 29.0  | 30.4  | 69.6  | 18:00 |
| 926 | 09/03/2026 17:55:20 | 30.4  | 30.4  | 29.1  | 30.5  | 68.7  | 17:55 |
| 925 | 09/03/2026 17:50:38 | 30.5  | 30.5  | 29.2  | 30.5  | 68.6  | 17:50 |
| 924 | 09/03/2026 17:45:56 | 30.4  | 30.4  | 29.2  | 30.4  | 68.0  | 17:45 |
| 923 | 09/03/2026 17:41:14 | 30.4  | 30.4  | 29.2  | 30.4  | 67.0  | 17:41 |